When you browse on this site, cookies collect data to enhance your experience and personalize the content and advertising you see.
Visit our Privacy Policy to learn more. By continuing to use the site, you agree to this use of cookies and data.
  • Em Portugal
  • Lista de países
  • Para 7 dias
  • Temperatura da água
  • Mapas de satélite
  • Mapa do tempo
  • Widgets de tempo
  • user-avatar
    Iniciar Sessão

    Previsão horária em Gielczyn

    Hoje, 27 Março, Quarta-feira

    Tempo Temperatura Precipitação Vento Pressão Humidade
    00:00 -4°C° 0 mm 5 m/s 756 mmHg 84%
    01:00 -3°C° 0 mm 4 m/s 757 mmHg 87%
    02:00 -3°C° 0 mm 4 m/s 757 mmHg 88%
    03:00 -2°C° 0 mm 3 m/s 758 mmHg 90%
    04:00 -4°C° 0 mm 3 m/s 758 mmHg 91%
    05:00 -2°C° 0 mm 3 m/s 758 mmHg 87%
    06:00 -1°C° 0 mm 3 m/s 759 mmHg 82%
    07:00 -1°C° 0 mm 3 m/s 759 mmHg 77%
    08:00 +1°C° 0 mm 3 m/s 759 mmHg 68%
    09:00 +3°C° 0 mm 4 m/s 759 mmHg 59%
    10:00 +5°C° 0 mm 4 m/s 759 mmHg 49%
    11:00 +6°C° 0 mm 4 m/s 759 mmHg 48%
    12:00 +7°C° 0 mm 5 m/s 759 mmHg 47%
    13:00 +7°C° 0 mm 5 m/s 759 mmHg 46%
    14:00 +7°C° 0 mm 5 m/s 759 mmHg 49%
    15:00 +7°C° 0 mm 5 m/s 759 mmHg 52%
    16:00 +7°C° 0 mm 5 m/s 759 mmHg 55%
    17:00 +6°C° 0.1 mm 4 m/s 759 mmHg 66%
    18:00 +5°C° 0.1 mm 3 m/s 759 mmHg 76%
    19:00 +4°C° 0.1 mm 3 m/s 759 mmHg 87%
    20:00 +4°C° 0.3 mm 3 m/s 759 mmHg 90%
    21:00 +4°C° 0.3 mm 3 m/s 759 mmHg 92%
    22:00 +4°C° 0.3 mm 3 m/s 759 mmHg 95%
    23:00 +4°C° 0.1 mm 3 m/s 759 mmHg 96%

    Amanhã, 28 Março, Quinta-feira

    Tempo Temperatura Precipitação Vento Pressão Humidade
    00:00 +4°C° 0.1 mm 3 m/s 760 mmHg 96%
    01:00 +3°C° 0.1 mm 3 m/s 760 mmHg 97%
    02:00 +4°C° 0 mm 2 m/s 760 mmHg 97%
    03:00 +4°C° 0 mm 2 m/s 760 mmHg 97%
    04:00 +4°C° 0 mm 2 m/s 760 mmHg 97%
    05:00 +4°C° 0 mm 2 m/s 760 mmHg 95%
    06:00 +5°C° 0 mm 2 m/s 761 mmHg 94%
    07:00 +5°C° 0 mm 2 m/s 761 mmHg 92%
    08:00 +6°C° 0 mm 2 m/s 761 mmHg 88%
    09:00 +6°C° 0 mm 2 m/s 762 mmHg 85%
    10:00 +7°C° 0 mm 2 m/s 762 mmHg 81%
    11:00 +8°C° 0 mm 2 m/s 762 mmHg 77%
    12:00 +8°C° 0 mm 2 m/s 763 mmHg 73%
    13:00 +9°C° 0 mm 2 m/s 763 mmHg 68%
    14:00 +9°C° 0 mm 2 m/s 763 mmHg 68%
    15:00 +9°C° 0 mm 2 m/s 763 mmHg 68%
    16:00 +9°C° 0 mm 2 m/s 763 mmHg 67%
    17:00 +8°C° 0 mm 2 m/s 763 mmHg 73%
    18:00 +7°C° 0 mm 1 m/s 763 mmHg 78%
    19:00 +6°C° 0 mm 1 m/s 763 mmHg 84%
    20:00 +6°C° 0 mm 1 m/s 764 mmHg 85%
    21:00 +5°C° 0 mm 1 m/s 764 mmHg 86%
    22:00 +5°C° 0 mm 1 m/s 764 mmHg 87%
    23:00 +5°C° 0 mm 1 m/s 764 mmHg 88%

    Depois de amanhã, 29 Março, Sexta-feira

    Tempo Temperatura Precipitação Vento Pressão Humidade
    00:00 +4°C° 0 mm 2 m/s 764 mmHg 89%
    01:00 +3°C° 0 mm 2 m/s 764 mmHg 90%
    02:00 +3°C° 0 mm 2 m/s 764 mmHg 91%
    03:00 +2°C° 0 mm 3 m/s 764 mmHg 93%
    04:00 +2°C° 0 mm 3 m/s 764 mmHg 94%
    05:00 +3°C° 0 mm 3 m/s 764 mmHg 93%
    06:00 +4°C° 0 mm 3 m/s 764 mmHg 91%
    07:00 +4°C° 0 mm 4 m/s 763 mmHg 90%
    08:00 +6°C° 0 mm 4 m/s 763 mmHg 86%
    09:00 +7°C° 0 mm 4 m/s 763 mmHg 83%
    10:00 +10°C° 0 mm 4 m/s 763 mmHg 79%
    11:00 +11°C° 0 mm 4 m/s 763 mmHg 76%
    12:00 +12°C° 0 mm 4 m/s 763 mmHg 72%
    13:00 +13°C° 0 mm 4 m/s 762 mmHg 69%
    14:00 +14°C° 0 mm 4 m/s 762 mmHg 68%
    15:00 +14°C° 0 mm 4 m/s 762 mmHg 66%
    16:00 +14°C° 0 mm 4 m/s 761 mmHg 65%
    17:00 +13°C° 0 mm 4 m/s 761 mmHg 71%
    18:00 +12°C° 0 mm 4 m/s 761 mmHg 77%
    19:00 +10°C° 0 mm 3 m/s 761 mmHg 83%
    20:00 +10°C° 0 mm 3 m/s 761 mmHg 86%
    21:00 +9°C° 0 mm 3 m/s 761 mmHg 89%
    22:00 +8°C° 0 mm 3 m/s 761 mmHg 91%
    23:00 +8°C° 0 mm 3 m/s 761 mmHg 92%

    30 Março, Sábado

    Tempo Temperatura Precipitação Vento Pressão Humidade
    00:00 +7°C° 0 mm 3 m/s 761 mmHg 93%
    01:00 +7°C° 0 mm 3 m/s 761 mmHg 93%
    02:00 +7°C° 0 mm 3 m/s 760 mmHg 94%
    03:00 +7°C° 0 mm 3 m/s 760 mmHg 95%
    04:00 +5°C° 0 mm 3 m/s 760 mmHg 96%
    05:00 +7°C° 0 mm 3 m/s 760 mmHg 93%
    06:00 +7°C° 0 mm 3 m/s 760 mmHg 91%
    07:00 +7°C° 0 mm 4 m/s 760 mmHg 89%
    08:00 +10°C° 0 mm 4 m/s 760 mmHg 82%
    09:00 +11°C° 0 mm 4 m/s 760 mmHg 75%
    10:00 +13°C° 0 mm 5 m/s 759 mmHg 68%
    11:00 +14°C° 0 mm 5 m/s 759 mmHg 65%
    12:00 +14°C° 0 mm 5 m/s 759 mmHg 63%
    13:00 +15°C° 0 mm 5 m/s 758 mmHg 60%
    14:00 +15°C° 0 mm 5 m/s 758 mmHg 61%
    15:00 +15°C° 0 mm 4 m/s 757 mmHg 62%
    16:00 +14°C° 0 mm 4 m/s 757 mmHg 62%
    17:00 +13°C° 0 mm 3 m/s 756 mmHg 68%
    18:00 +12°C° 0 mm 3 m/s 756 mmHg 75%
    19:00 +10°C° 0 mm 2 m/s 756 mmHg 81%
    20:00 +10°C° 0 mm 2 m/s 756 mmHg 82%
    21:00 +9°C° 0 mm 2 m/s 755 mmHg 83%
    22:00 +9°C° 0 mm 2 m/s 755 mmHg 85%
    23:00 +8°C° 0 mm 2 m/s 754 mmHg 85%

    31 Março, Domingo

    Tempo Temperatura Precipitação Vento Pressão Humidade
    00:00 +8°C° 0 mm 3 m/s 754 mmHg 85%
    01:00 +8°C° 0 mm 3 m/s 753 mmHg 85%
    02:00 +7°C° 0 mm 3 m/s 753 mmHg 84%
    03:00 +7°C° 0 mm 3 m/s 752 mmHg 82%
    04:00 +7°C° 0 mm 3 m/s 752 mmHg 81%
    05:00 +6°C° 0 mm 4 m/s 752 mmHg 78%
    06:00 +7°C° 0 mm 4 m/s 751 mmHg 76%
    07:00 +8°C° 0 mm 4 m/s 751 mmHg 73%
    08:00 +10°C° 0 mm 5 m/s 751 mmHg 67%
    09:00 +13°C° 0 mm 6 m/s 751 mmHg 61%
    10:00 +15°C° 0 mm 6 m/s 751 mmHg 55%
    11:00 +15°C° 0.1 mm 7 m/s 751 mmHg 54%
    12:00 +15°C° 0.1 mm 8 m/s 751 mmHg 54%
    13:00 +15°C° 0.1 mm 8 m/s 750 mmHg 53%
    14:00 +13°C° 0.1 mm 8 m/s 751 mmHg 58%
    15:00 +11°C° 0.1 mm 7 m/s 751 mmHg 62%
    16:00 +10°C° 0.1 mm 7 m/s 751 mmHg 67%
    17:00 +9°C° 0 mm 6 m/s 752 mmHg 61%
    18:00 +7°C° 0 mm 6 m/s 753 mmHg 54%
    19:00 +5°C° 0 mm 6 m/s 753 mmHg 48%
    20:00 +4°C° 0 mm 6 m/s 754 mmHg 53%
    21:00 +2°C° 0 mm 5 m/s 755 mmHg 58%
    22:00 +1°C° 0 mm 5 m/s 755 mmHg 63%
    23:00 +1°C° 0 mm 4 m/s 756 mmHg 68%

    1 Abril, Segunda-feira

    Tempo Temperatura Precipitação Vento Pressão Humidade
    00:00 0°C° 0 mm 4 m/s 756 mmHg 73%
    01:00 0°C° 0 mm 3 m/s 757 mmHg 78%
    02:00 0°C° 0 mm 3 m/s 757 mmHg 79%
    03:00 0°C° 0 mm 3 m/s 758 mmHg 81%
    04:00 -1°C° 0 mm 3 m/s 758 mmHg 82%
    05:00 0°C° 0 mm 3 m/s 759 mmHg 77%
    06:00 0°C° 0 mm 3 m/s 759 mmHg 72%
    07:00 0°C° 0 mm 4 m/s 760 mmHg 67%
    08:00 +1°C° 0 mm 4 m/s 760 mmHg 58%
    09:00 +3°C° 0 mm 3 m/s 760 mmHg 50%
    10:00 +5°C° 0 mm 3 m/s 761 mmHg 42%
    11:00 +5°C° 0 mm 4 m/s 761 mmHg 40%
    12:00 +6°C° 0 mm 4 m/s 760 mmHg 38%
    13:00 +6°C° 0 mm 4 m/s 760 mmHg 36%
    14:00 +6°C° 0 mm 4 m/s 760 mmHg 37%
    15:00 +6°C° 0 mm 4 m/s 760 mmHg 38%
    16:00 +6°C° 0 mm 4 m/s 759 mmHg 40%
    17:00 +5°C° 0 mm 3 m/s 759 mmHg 44%
    18:00 +3°C° 0 mm 3 m/s 759 mmHg 49%
    19:00 +3°C° 0 mm 2 m/s 759 mmHg 54%
    20:00 +2°C° 0 mm 2 m/s 759 mmHg 55%
    21:00 +2°C° 0 mm 2 m/s 759 mmHg 56%
    22:00 +1°C° 0 mm 2 m/s 759 mmHg 56%
    23:00 0°C° 0 mm 3 m/s 759 mmHg 58%
    Mostrar mais